www.pogodaiklimat.ru

Погода и климат >> Архив погоды >> Непал >> Сиддхартханагар


ПОГОДА в Сиддхартханагаре

  • Прогноз погоды в Сиддхартханагаре
  • Монитор погоды в Сиддхартханагаре

АРХИВ ПОГОДЫ в Сиддхартханагаре

Время (UTC), дата Ветер
(напр.,м/с)
 
Видим.   Явления Облачность Т
(С)
Тd
(С)
f
(%)
Тe
(С)
Тes
(С)
Комфортность P
(гПа)
Po
(гПа)
Тmin
(С)
Tmax
(С)
R
(мм)
R24
(мм)
S
(см)
00 19.06 штиль 0 7000 м 4/4 600 м
[Cu Sc]
+26.4 +21.9 76 +34 +34 очень
душно
999.7 987.8
03 19.06 В 4 7000 м 6/4 600 м
[Cu Sc Ac cast]
+32.1 +22.9 58 +42 +46 опасность
перегрева
1001.0 988.9 +26.3
06 19.06 ЮВ 3 7000 м 6/4 600 м
[Cu med, cong Ac trans]
+35.0 +24.2 54 +47 +56 опасность
перегрева
1000.8 988.7
09 19.06 Ю 6 7000 м 9/5 600 м
[Cu Sc Ac As]
+35.6 +22.5 47 +45 +46 опасность
перегрева
999.9 987.7
12 19.06 З 6 6000 м 9/5 600 м
[Cu Sc Ac As]
+34.6 +20.9 45 +42 +42 опасность
перегрева
998.2 986.0 +37.5 0.0
00 20.06 штиль 0 7000 м слаб. морось 9/5 600 м
[Cu Sc Ac As]
+25.2 +23.3 89 +34 +34 очень
душно
1001.3 989.1
03 20.06 штиль 0 7000 м 6/4 600 м
[Cu Sc Ac trans]
+27.6 +24.3 82 +39 +45 очень
душно
1002.2 990.0 +24.7 5
06 20.06 Ю 3 7000 м 1/1 600 м
[Cu hum]
+34.9 +23.4 51 +45 +61 опасность
перегрева
1002.2 990.0
09 20.06 Ю 3 7000 м 3/3 600 м
[Cu hum]
+36.9 +23.1 45 +47 +55 опасность
перегрева
1000.5 988.3
12 20.06 Ю 3 7000 м 5/1 600 м
[Cu hum Ac trans]
+36.9 +22.1 43 +46 +46 опасность
перегрева
997.8 985.8 +38.2
00 21.06 В 3 7000 м 1/1 600 м
[Cu hum]
+29.9 +24.1 71 +41 +42 опасность
перегрева
1001.3 989.3
03 21.06 В 6 7000 м 1/1 600 м
[Cu hum]
+32.4 +25.0 65 +46 +50 опасность
перегрева
1003.1 991.0 +29.3
06 21.06 ЮВ 4 7000 м 5/3 600 м
[Cu med, cong Ac lent]
+36.0 +26.1 57 +52 +61 опасность
перегрева
1002.5 990.4
09 21.06 ЮВ 3 7000 м 5/3 600 м
[Cu med, cong Ac und]
+38.0 +25.6 49 +52 +59 опасность
перегрева
999.6 987.5
12 21.06 ЮВ 4 7000 м 5/3 600 м
[Cu med, cong Ac und]
+36.8 +23.9 48 +48 +49 опасность
перегрева
997.8 985.9 +39.5
00 22.06 штиль 0 6000 м слаб. морось 10/5 600 м
[Cu Sc As trans]
+26.5 +20.2 68 +33 +33 очень
душно
1003.3 991.4
03 22.06 В 1 6000 м слаб. морось 10/4 600 м
[Frnb Ac As]
+27.5 +26.0 92 +41 +44 опасность
перегрева
1003.9 991.8 +26.2 2
06 22.06 В 3 6000 м морось 10/5 200 м
[Frnb Ac As]
+26.0 +24.9 94 +37 +40 очень
душно
1004.6 992.5
09 22.06 В 3 6000 м морось 10/5 600 м
[Cu Sc Ac As]
+25.8 +25.0 95 +37 +39 очень
душно
1003.3 991.0
12 22.06 В 4 8000 м слаб. морось 9/5 600 м
[Cu Sc Ac As]
+26.8 +25.2 91 +39 +39 очень
душно
1001.8 989.5 +28.4 12
03 23.06 В 6 7000 м 9/5 600 м
[Cu Sc Ac As]
+28.0 +25.3 85 +41 +42 опасность
перегрева
1003.3 990.9 +25.4 22
06 23.06 В 4 7000 м в посл. час морось 9/5 600 м
[Cu Sc Ac As]
+30.6 +26.1 77 +46 +50 опасность
перегрева
1003.7 991.3
09 23.06 В 3 8000 м 5/5 600 м
[Sc diur, vesp]
+34.6 +26.7 64 +52 +58 опасность
перегрева
1002.0 989.8
12 23.06 В 4 8000 м 5/3 600 м
[Cb cap Ac trans]
+34.4 +26.2 62 +50 +51 опасность
перегрева
1001.0 988.8 +35.5 2
00 24.06 В 2 7000 м 1/1 600 м
[Cu hum]
+28.8 +25.3 81 +42 +42 опасность
перегрева
1003.6 991.4
03 24.06 В 3 8000 м 1/1 600 м
[Cu hum]
+33.1 +25.9 66 +49 +56 опасность
перегрева
1004.9 992.7 +28.1
06 24.06 В 6 8000 м 3/3 600 м
[Cu hum]
+35.4 +27.0 62 +53 +59 опасность
перегрева
1004.8 992.6
09 24.06 В 3 8000 м 3/3 600 м
[Cu hum]
+37.0 +25.3 51 +51 +59 опасность
перегрева
1002.4 990.3
12 24.06 В 3 8000 м 1/1 600 м
[Cu hum]
+36.6 +25.5 53 +51 +52 опасность
перегрева
1000.3 988.2 +38.0
00 25.06 штиль 0 6000 м 1/1 600 м
[Cu hum]
+28.7 +27.0 91 +45 +46 опасность
перегрева
1002.2 990.1
03 25.06 штиль 0 7000 м 1/1 600 м
[Cu hum]
+34.6 +26.2 62 +51 +64 опасность
перегрева
1003.0 990.8 +28.7
06 25.06 СВ 2 7000 м 3/3 600 м
[Cu hum]
+37.4 +26.1 53 +53 +70 опасность
перегрева
1002.5 990.3
09 25.06 З 3 7000 м 4/4 600 м
[Cu med, cong]
+39.4 +25.7 46 +53 +62 опасность
перегрева
1000.1 988.0
12 25.06 З 11 5000 м гроза без осадков 8/5 600 м
[Cb cap Ac und]
+35.0 +25.7 59 +50 +50 опасность
перегрева
999.5 987.4 +39.7

 

Местоположение метеостанции Сиддхартханагар (Непал): широта 27.52 долгота 83.45 высота над уровнем моря 109 м.

В архиве по умолчанию представлена погода в Сиддхартханагаре за последнюю неделю. Архивные данные за месяц целиком и за предыдущие месяцы, начиная с января 2011 года, Вы можете получить, выбрав интересующий диапазон дат из раскрывающегося списка и нажав кнопку "Ввод!".


*Определитесь, кто Вы:
робот инопланетянин человек

Внимание! Время в таблицах - всемирное. Для получения местного времени необходимо прибавить поправку, которая равна 5.5 ч.

Смотрите также архив погоды в соседних городах и на ближайших метеорологических станциях:

Погода в Горакпуре (Уттар-Прадеш, Индия) (86 км)
Погода в Покхаре (Непал) (92 км)
Погода в Гхорахи (Непал) (111 км)
Погода в Симаре (Непал) (156 км)
Погода в Бахрайче (Уттар-Прадеш, Индия) (183 км)
Погода в Непалгандже (Непал) (187 км)
Погода в Катманду (Непал) (190 км)
Погода в Султанпуре (Уттар-Прадеш, Индия) (195 км)
Погода в Суркхете (Непал) (216 км)
Погода в Чхапре (Бихар, Индия) (232 км)

Пояснения к столбцам:

Ветер - указаны скорость ветра в м/с - средняя за 10 мин, порывы в срок и между сроками (в фигурных скобках) и направление, откуда дует ветер: С - северный, СВ - северо-восточный, В - восточный, ЮВ - юго-восточный, Ю - южный, ЮЗ - юго-западный, З - западный, СЗ - северо-западный.
Видимость - горизонтальная дальность видимости в метрах или километрах. При видимости от 1 до 10 км при отсутствии осадков обычно наблюдается дымка, при ухудшении видимости до 1 км и менее - туман. В сухую погоду видимость может ухудшаться дымом, пылью или мглою.
Явления - указаны атмосферные явления, наблюдавшиеся в срок или в последний час перед сроком; фигурными скобками обозначены явления, наблюдавшиеся между сроками (за 1-3 часа до срока); квадратными скобками обозначены град или гололедные отложения с указанием их диаметра в мм.
Облачность - указаны через наклонную черту общая и нижняя облачность в баллах и высота нижней границы облаков в метрах; квадратными скобками обозначены формы облаков: Ci - перистые, Cs - перисто-слоистые, Cc - перисто-кучевые, Ac - высококучевые, As - высокослоистые, Sc - слоисто-кучевые, Ns - слоисто-дождевые, Cu - кучевые, Cb - кучево-дождевые. Подробнее классификацию облаков см. в Атласе облаков (PDF).
T - Температура воздуха - температура, измеренная на высоте 2 м над землей.
Td - Температура точки росы - температура, при понижении до которой содержащийся в воздухе водяной пар достигнет насыщения.
f - Относительная влажность воздуха - влажноcть воздуха, измеренная на высоте 2 м над землей.
Te - Эффективная температура - температура, которую ощущает одетый по сезону человек в тени. Характеристика душности погоды. При расчете учитывается влияние влажности воздуха и скорости ветра на теплоощущения человека.
Tes - Эффективная температура на солнце - температура, которую ощущает человек, с поправкой на солнечный нагрев. Характеристика знойности погоды. Зависит от высоты солнца над горизонтом, облачности и скорости ветра. Ночью, в пасмурную погоду, а также при ветре 12 м/с и более поправка равна нулю.
P - Атмосферное давление - приведенное к уровню моря атмосферное давление.
Po - Атмосферное давление - измеренное на уровне метеостанции атмосферное давление.
Tmin - Минимальная температура - минимум температуры воздуха на высоте 2 м над землей.
Tmax - Максимальная температура - максимум температуры воздуха на высоте 2 м над землей.
R - Количество осадков - Количество выпавших осадков за период времени, мм. При наведении курсора мыши на число - период времени, за который выпало указанное количество осадков.
R24 - Количество осадков - Количество выпавших осадков за 24 часа, мм.
S - Снежный покров - Высота снежного покрова, см. При наведении курсора мыши на число - состояние снежного покрова и степень покрытия местности в баллах.